FW9290 Weather Reports


time (UTC)temp
C
wind
direction
speed
KPH
gust
KPH
rain 1hr
cm
rain 24hr
cm
rain mn
cm
humidity
%
barometer
mb
20260506193520 30 0 0.0 3.2 0.00 0.00 0.00 80 1009.3
20260506193040 30 95 0.0 4.8 0.00 0.00 0.00 78 1009.3
20260506192519 30 244 0.0 4.8 0.00 0.00 0.00 78 1009.4
20260506192021 30 224 0.0 4.8 0.00 0.00 0.00 77 1009.4
20260506191537 31 44 0.0 4.8 0.00 0.00 0.00 77 1009.4
20260506191021 31 262 0.0 4.8 0.00 0.00 0.00 77 1009.5
20260506190519 31 0 0.0 4.8 0.00 0.00 0.00 76 1009.8
20260506190034 30 0 0.0 4.8 0.00 0.00 0.00 78 1009.8
20260506185518 30 256 0.0 3.2 0.00 0.00 0.00 77 1009.7
20260506185020 30 0 0.0 1.6 0.00 0.00 0.00 78 1009.8
20260506184539 30 0 0.0 1.6 0.00 0.00 0.00 78 1010.0
20260506184021 30 0 0.0 1.6 0.00 0.00 0.00 79 1010.0
20260506183521 30 0 0.0 1.6 0.00 0.00 0.00 80 1010.2
20260506183035 30 302 0.0 1.6 0.00 0.00 0.00 80 1010.2
20260506182520 29 0 0.0 1.6 0.00 0.00 0.00 80 1010.3
20260506182021 29 0 0.0 1.6 0.00 0.00 0.00 80 1010.3
20260506181542 29 0 0.0 1.6 0.00 0.00 0.00 80 1010.4
20260506181023 29 0 0.0 4.8 0.00 0.00 0.00 80 1010.6
20260506180528 29 0 0.0 4.8 0.00 0.00 0.00 80 1010.7
20260506180046 29 264 0.0 4.8 0.00 0.00 0.00 81 1010.8
20260506175519 29 290 0.0 1.6 0.00 0.00 0.00 81 1010.9
20260506175020 29 0 0.0 3.2 0.00 0.00 0.00 82 1010.8
20260506174535 28 0 0.0 3.2 0.00 0.00 0.00 83 1010.9
20260506174019 28 0 0.0 1.6 0.00 0.00 0.00 86 1011.0
20260506173519 28 240 0.0 1.6 0.00 0.00 0.00 85 1011.1
20260506173037 27 0 0.0 1.6 0.00 0.00 0.00 86 1011.2
20260506172518 27 0 0.0 1.6 0.00 0.00 0.00 86 1011.2
20260506172021 27 0 0.0 1.6 0.00 0.00 0.00 86 1011.2
20260506171549 27 255 0.0 1.6 0.00 0.00 0.00 87 1011.2
20260506171018 27 0 0.0 1.6 0.00 0.00 0.00 88 1011.3
20260506170522 27 0 0.0 1.6 0.00 0.00 0.00 89 1011.4
20260506170040 27 0 0.0 0.0 0.00 0.00 0.00 89 1011.5
20260506165521 26 236 0.0 0.0 0.00 0.00 0.00 89 1011.3
20260506165021 26 0 0.0 1.6 0.00 0.00 0.00 89 1011.4
20260506164537 26 0 0.0 1.6 0.00 0.00 0.00 89 1011.3
20260506164018 26 0 0.0 0.0 0.00 0.00 0.00 88 1011.4
20260506163519 26 0 0.0 0.0 0.00 0.00 0.00 88 1011.3
20260506163045 26 0 0.0 0.0 0.00 0.00 0.00 88 1011.2
20260506162518 26 0 0.0 1.6 0.00 0.00 0.00 88 1011.1
20260506162018 26 0 0.0 1.6 0.00 0.00 0.00 89 1011.0
20260506161547 26 0 0.0 1.6 0.00 0.00 0.00 89 1011.1
20260506161021 26 0 0.0 1.6 0.00 0.00 0.00 90 1011.1
20260506160522 26 0 0.0 1.6 0.00 0.00 0.00 90 1011.0
20260506160034 26 0 0.0 1.6 0.00 0.00 0.00 90 1010.9
20260506155519 26 247 0.0 1.6 0.00 0.00 0.00 89 1010.9
20260506155019 26 0 0.0 1.6 0.00 0.00 0.00 89 1010.9
20260506154540 26 0 0.0 0.0 0.00 0.00 0.00 89 1010.9
20260506154021 26 0 0.0 1.6 0.00 0.00 0.00 89 1010.9
20260506153520 26 0 0.0 1.6 0.00 0.00 0.00 89 1010.9
20260506153038 26 0 0.0 1.6 0.00 0.00 0.00 88 1010.9
20260506152521 26 0 0.0 1.6 0.00 0.00 0.00 88 1010.7
20260506152019 26 0 0.0 1.6 0.00 0.00 0.00 88 1010.5
20260506151536 26 0 0.0 1.6 0.00 0.00 0.00 88 1010.4
20260506151018 26 0 0.0 1.6 0.00 0.00 0.00 88 1010.4
20260506150519 26 0 0.0 1.6 0.00 0.00 0.00 88 1010.4
20260506150035 26 0 0.0 1.6 0.00 0.00 0.00 88 1010.4
20260506145520 26 0 0.0 0.0 0.00 0.00 0.00 88 1010.3
20260506145019 26 0 0.0 1.6 0.00 0.00 0.00 89 1010.1
20260506144539 26 0 0.0 1.6 0.00 0.00 0.00 89 1010.1
20260506144019 26 0 0.0 3.2 0.00 0.00 0.00 88 1009.9
20260506143519 26 0 0.0 3.2 0.00 0.00 0.00 89 1009.9
20260506143038 26 0 0.0 0.0 0.00 0.00 0.00 89 1009.8
20260506142519 26 0 0.0 0.0 0.00 0.00 0.00 90 1009.8
20260506142018 26 0 0.0 0.0 0.00 0.00 0.00 90 1009.9
20260506141535 26 0 0.0 1.6 0.00 0.00 0.00 91 1009.8
20260506141019 26 0 0.0 1.6 0.00 0.00 0.00 91 1009.9
20260506140520 26 0 0.0 1.6 0.00 0.00 0.00 91 1010.0
20260506140043 26 0 0.0 4.8 0.00 0.00 0.00 92 1010.0
20260506135521 25 46 0.0 4.8 0.00 0.00 0.00 92 1010.0
20260506135027 25 0 0.0 1.6 0.00 0.00 0.00 93 1010.1
20260506134606 25 0 0.0 1.6 0.00 0.00 0.00 94 1010.0
20260506134018 25 0 0.0 3.2 0.00 0.00 0.00 94 1010.0
20260506133519 25 0 0.0 3.2 0.00 0.00 0.00 94 1010.1
20260506133039 25 0 0.0 3.2 0.00 0.00 0.00 94 1010.2
20260506132519 24 0 0.0 3.2 0.00 0.00 0.00 94 1010.2
20260506132019 24 0 0.0 0.0 0.00 0.00 0.00 95 1010.2
20260506131543 24 0 0.0 0.0 0.00 0.00 0.00 95 1010.2
20260506131019 24 0 0.0 0.0 0.00 0.00 0.00 95 1010.2
20260506130523 24 0 0.0 0.0 0.00 0.00 0.00 95 1010.1
20260506130036 24 0 0.0 0.0 0.00 0.00 0.00 95 1010.2
20260506125518 24 0 0.0 0.0 0.00 0.00 0.00 95 1010.1
20260506125018 24 0 0.0 0.0 0.00 0.00 0.00 95 1010.2
20260506124533 24 0 0.0 0.0 0.00 0.00 0.00 95 1010.1
20260506124018 23 0 0.0 1.6 0.00 0.00 0.00 95 1010.2
20260506123519 23 0 0.0 1.6 0.00 0.00 0.00 95 1010.1
20260506123042 23 79 0.0 1.6 0.00 0.00 0.00 95 1010.0
20260506122519 23 0 0.0 1.6 0.00 0.00 0.00 95 1009.9
20260506122018 23 0 0.0 1.6 0.00 0.00 0.00 95 1009.9
20260506121539 23 0 0.0 1.6 0.00 0.00 0.00 95 1009.9
20260506121018 23 0 0.0 0.0 0.00 0.00 0.00 95 1009.8
20260506120519 23 0 0.0 0.0 0.00 0.00 0.00 95 1009.7
20260506120039 23 0 0.0 0.0 0.00 0.00 0.00 95 1009.7
20260506115518 23 0 0.0 0.0 0.00 0.00 0.00 95 1009.6
20260506115019 23 0 0.0 0.0 0.00 0.00 0.00 95 1009.4
20260506114543 23 0 0.0 0.0 0.00 0.00 0.00 95 1009.4
20260506114018 23 0 0.0 1.6 0.00 0.00 0.00 95 1009.4
20260506113519 23 0 0.0 1.6 0.00 0.00 0.00 95 1009.3
20260506113038 23 0 0.0 0.0 0.00 0.00 0.00 95 1009.2
20260506112520 23 0 0.0 0.0 0.00 0.00 0.00 95 1009.1
20260506112019 23 0 0.0 0.0 0.00 0.00 0.00 95 1009.1
20260506111534 23 0 0.0 0.0 0.00 0.00 0.00 95 1009.1
20260506111019 23 0 0.0 0.0 0.00 0.00 0.00 95 1009.0
20260506110520 23 0 0.0 1.6 0.00 0.00 0.00 95 1009.0
20260506110037 23 0 0.0 1.6 0.00 0.00 0.00 95 1008.9
20260506105519 23 0 0.0 0.0 0.00 0.00 0.00 95 1008.8
20260506105018 23 0 0.0 0.0 0.00 0.00 0.00 95 1008.9
20260506104533 23 0 0.0 0.0 0.00 0.00 0.00 95 1008.9
20260506104018 23 0 0.0 0.0 0.00 0.00 0.00 95 1008.9
20260506103519 23 0 0.0 1.6 0.00 0.00 0.00 95 1008.9
20260506103036 23 0 0.0 1.6 0.00 0.00 0.00 95 1008.8
20260506102520 23 0 0.0 1.6 0.00 0.00 0.00 95 1008.9
20260506102021 23 0 0.0 0.0 0.00 0.00 0.00 95 1008.9
20260506101535 23 0 0.0 0.0 0.00 0.00 0.00 95 1008.7
20260506101020 23 0 0.0 1.6 0.00 0.00 0.00 95 1008.8
20260506100518 23 0 0.0 1.6 0.00 0.00 0.00 95 1008.7
20260506100036 23 0 0.0 1.6 0.00 0.00 0.00 95 1008.7
20260506095522 23 0 0.0 1.6 0.00 0.00 0.00 95 1008.9
20260506095019 23 0 0.0 1.6 0.00 0.00 0.00 95 1008.8
20260506094536 23 0 0.0 0.0 0.00 0.00 0.00 94 1008.7
20260506094020 23 0 0.0 1.6 0.00 0.00 0.00 94 1008.6
20260506093519 23 0 0.0 1.6 0.00 0.00 0.00 94 1008.7
20260506093033 23 0 0.0 1.6 0.00 0.00 0.00 94 1008.8
20260506092519 23 0 0.0 1.6 0.00 0.00 0.00 94 1008.5
20260506092020 23 0 0.0 1.6 0.00 0.00 0.00 94 1008.7
20260506091537 23 0 0.0 0.0 0.00 0.00 0.00 94 1008.7
20260506091022 23 0 0.0 1.6 0.00 0.00 0.00 94 1008.7
20260506090518 23 0 0.0 1.6 0.00 0.00 0.00 94 1008.8
20260506090035 23 0 0.0 1.6 0.00 0.00 0.00 94 1008.8
20260506085521 23 0 0.0 1.6 0.00 0.00 0.00 94 1008.9
20260506085021 23 0 0.0 0.0 0.00 0.00 0.00 93 1008.9
20260506084531 23 0 0.0 0.0 0.00 0.00 0.00 93 1008.8
20260506084022 23 0 0.0 0.0 0.00 0.00 0.00 93 1008.8
20260506083519 24 0 0.0 0.0 0.00 0.00 0.00 93 1008.9
20260506083037 24 0 0.0 0.0 0.00 0.00 0.00 93 1009.0
20260506082519 24 0 0.0 1.6 0.00 0.00 0.00 93 1009.0
20260506082019 24 0 0.0 1.6 0.00 0.00 0.00 93 1009.1
20260506081545 24 0 0.0 1.6 0.00 0.00 0.00 93 1009.1
20260506081021 24 0 0.0 0.0 0.00 0.00 0.00 93 1009.2
20260506080519 24 0 0.0 0.0 0.00 0.00 0.00 93 1009.2
20260506073521 24 0 0.0 1.6 0.00 0.00 0.00 93 1009.4
20260506073036 24 0 0.0 1.6 0.00 0.00 0.00 93 1009.5
20260506072520 24 0 0.0 1.6 0.00 0.00 0.00 93 1009.6
20260506072024 24 0 0.0 1.6 0.00 0.00 0.00 93 1009.6
20260506071536 24 0 0.0 1.6 0.00 0.00 0.00 93 1009.5
20260506071019 24 0 0.0 0.0 0.00 0.00 0.00 93 1009.5
20260506070519 24 0 0.0 0.0 0.00 0.00 0.00 92 1009.7
20260506062018 24 0 0.0 0.0 0.00 0.00 0.00 92 1009.9
20260506061539 24 0 0.0 0.0 0.00 0.00 0.00 92 1010.0
20260506061021 24 0 0.0 0.0 0.00 0.00 0.00 92 1010.0
20260506060520 24 0 0.0 1.6 0.00 0.00 0.00 92 1010.0
20260506051020 25 0 0.0 1.6 0.00 0.00 0.00 92 1010.0
20260506050518 25 0 0.0 1.6 0.00 0.00 0.00 91 1010.0
20260506045020 25 0 0.0 1.6 0.00 0.00 0.00 91 1010.1
20260506044539 25 0 0.0 1.6 0.00 0.00 0.00 91 1010.1
20260506044025 25 0 0.0 1.6 0.00 0.00 0.00 91 1009.9
20260506043519 25 0 0.0 1.6 0.00 0.00 0.00 91 1009.8
20260506043033 25 0 0.0 1.6 0.00 0.00 0.00 91 1009.8
20260506042519 25 0 0.0 1.6 0.00 0.00 0.00 91 1009.8
20260506042019 25 0 0.0 0.0 0.00 0.00 0.00 91 1009.9
20260506041539 25 48 0.0 1.6 0.00 0.00 0.00 91 1009.8
20260506041018 25 0 0.0 1.6 0.00 0.00 0.00 91 1009.8
20260506040523 25 0 0.0 1.6 0.00 0.00 0.00 91 1009.7
20260506040032 25 160 0.0 1.6 0.00 0.00 0.00 91 1009.8
20260506035519 25 0 0.0 1.6 0.00 0.00 0.00 90 1009.7
20260506035019 25 0 0.0 1.6 0.00 0.00 0.00 90 1009.6
20260506034535 25 0 0.0 3.2 0.00 0.00 0.00 90 1009.4
20260506034020 25 0 0.0 3.2 0.00 0.00 0.00 90 1009.4
20260506033522 25 257 0.0 3.2 0.00 0.00 0.00 89 1009.4
20260506033037 25 0 0.0 3.2 0.00 0.00 0.00 89 1009.3
20260506032519 25 73 0.0 3.2 0.00 0.00 0.00 89 1009.2
20260506032019 25 0 0.0 3.2 0.00 0.00 0.00 89 1009.3
20260506031539 25 0 0.0 1.6 0.00 0.00 0.00 89 1009.3
20260506031021 25 0 0.0 1.6 0.00 0.00 0.00 89 1009.4
20260506030520 25 0 0.0 1.6 0.00 0.00 0.00 89 1009.3
20260506030035 25 0 0.0 1.6 0.00 0.00 0.00 89 1009.2
20260506025529 25 0 0.0 1.6 0.00 0.00 0.00 88 1009.1
20260506025019 25 0 0.0 3.2 0.00 0.00 0.00 88 1009.1
20260506024540 25 0 0.0 3.2 0.00 0.00 0.00 88 1009.1
20260506024021 25 0 0.0 3.2 0.00 0.00 0.00 88 1009.0
20260506023521 25 0 0.0 3.2 0.00 0.00 0.00 88 1009.0
20260506023032 25 0 0.0 3.2 0.00 0.00 0.00 88 1008.9
20260506022520 25 0 0.0 1.6 0.00 0.00 0.00 87 1008.8
20260506022019 25 0 0.0 1.6 0.00 0.00 0.00 87 1008.7
20260506021537 25 0 0.0 1.6 0.00 0.00 0.00 87 1008.6
20260506021020 25 0 0.0 1.6 0.00 0.00 0.00 87 1008.6
20260506020518 25 18 0.0 1.6 0.00 0.00 0.00 87 1008.6
20260506020039 25 0 0.0 3.2 0.00 0.00 0.00 86 1008.5
20260506015519 25 0 0.0 3.2 0.00 0.00 0.00 86 1008.5
20260506015019 26 0 0.0 1.6 0.00 0.00 0.00 86 1008.4
20260506014536 26 0 0.0 3.2 0.00 0.00 0.00 86 1008.2
20260506014018 26 0 0.0 3.2 0.00 0.00 0.00 86 1008.1
20260506013518 26 0 0.0 1.6 0.00 0.00 0.00 86 1008.0
20260506013035 26 0 0.0 1.6 0.00 0.00 0.00 86 1007.9
20260506012518 26 0 0.0 3.2 0.00 0.00 0.00 85 1007.8
20260506012021 26 0 0.0 3.2 0.00 0.00 0.00 85 1007.8
20260506011600 26 0 0.0 3.2 0.00 0.00 0.00 85 1007.7
20260506011018 26 102 0.0 1.6 0.00 0.00 0.00 85 1007.7
20260506010521 26 0 0.0 1.6 0.00 0.00 0.00 84 1007.7
20260506010033 26 111 0.0 1.6 0.00 0.00 0.00 84 1007.7
20260506005519 26 210 0.0 1.6 0.00 0.00 0.00 84 1007.7
20260506005019 26 0 0.0 3.2 0.00 0.00 0.00 83 1007.6
20260506004547 26 0 0.0 3.2 0.00 0.00 0.00 83 1007.6
20260506004018 26 277 0.0 3.2 0.00 0.00 0.00 83 1007.4
20260506003520 26 0 0.0 3.2 0.00 0.00 0.00 82 1007.4
20260506003033 26 0 0.0 3.2 0.00 0.00 0.00 82 1007.6
20260506002519 26 224 0.0 4.8 0.00 0.00 0.00 82 1007.6
20260506002019 26 120 0.0 4.8 0.00 0.00 0.00 82 1007.4
20260506001537 26 0 0.0 1.6 0.00 0.00 0.00 82 1007.5
20260506001020 26 51 0.0 1.6 0.00 0.00 0.00 82 1007.5
20260506000524 26 0 0.0 1.6 0.00 0.00 0.00 82 1007.7
20260506000109 26 0 0.0 1.6 0.00 0.00 0.00 81 1007.5
20260505235519 27 0 0.0 4.8 0.00 0.00 0.00 81 1007.4
20260505235019 27 113 0.0 4.8 0.00 0.00 0.00 81 1007.4
20260505234545 27 0 0.0 4.8 0.00 0.00 0.00 81 1007.4
20260505234020 27 0 0.0 3.2 0.00 0.00 0.00 81 1007.5
20260505233519 27 0 0.0 3.2 0.00 0.00 0.00 81 1007.5
20260505233036 27 0 0.0 3.2 0.00 0.00 0.00 81 1007.5
20260505232522 27 266 0.0 3.2 0.00 0.00 0.00 80 1007.5
20260505232020 27 0 0.0 3.2 0.00 0.00 0.00 80 1007.4
20260505231537 27 0 0.0 3.2 0.00 0.00 0.00 80 1007.6
20260505231019 27 250 0.0 1.6 0.00 0.00 0.00 80 1007.6
20260505230518 27 0 0.0 3.2 0.00 0.00 0.00 81 1007.5
20260505230052 27 0 0.0 3.2 0.00 0.00 0.00 80 1007.5
20260505225523 27 0 0.0 4.8 0.00 0.00 0.00 79 1007.4
20260505225018 27 0 0.0 4.8 0.00 0.00 0.00 79 1007.3
20260505224542 27 0 0.0 4.8 0.00 0.00 0.00 80 1007.5
20260505224019 28 0 0.0 3.2 0.00 0.00 0.00 80 1007.6
20260505223518 28 244 0.0 3.2 0.00 0.00 0.00 79 1007.5
20260505223039 28 0 0.0 3.2 0.00 0.00 0.00 78 1007.4
20260505222524 28 0 0.0 1.6 0.00 0.00 0.00 78 1007.5
20260505222019 28 265 0.0 1.6 0.00 0.00 0.00 78 1007.6
20260505221536 28 0 0.0 3.2 0.00 0.00 0.00 79 1007.5
20260505221019 28 255 0.0 3.2 0.00 0.00 0.00 78 1007.6
20260505220520 28 0 0.0 1.6 0.00 0.00 0.00 79 1007.6
20260505220039 28 0 0.0 3.2 0.00 0.00 0.00 78 1007.6
20260505215520 28 0 0.0 3.2 0.00 0.00 0.00 78 1007.7
20260505215021 28 99 0.0 1.6 0.00 0.00 0.00 78 1007.7
20260505214537 28 0 0.0 4.8 0.00 0.00 0.00 78 1007.7
20260505214023 28 0 0.0 4.8 0.00 0.00 0.00 77 1007.7
20260505213519 28 224 0.0 4.8 0.00 0.00 0.00 77 1007.8
20260505213038 28 246 0.0 8.0 0.00 0.00 0.00 77 1007.9
20260505212519 28 0 0.0 8.0 0.00 0.00 0.00 76 1008.0
20260505212019 28 64 0.0 8.0 0.00 0.00 0.00 77 1008.0
20260505211540 28 252 1.6 4.8 0.00 0.00 0.00 76 1008.0
20260505211019 28 217 0.0 6.4 0.00 0.00 0.00 77 1008.1
20260505210522 28 123 0.0 6.4 0.00 0.00 0.00 77 1008.1
20260505210035 28 231 0.0 4.8 0.00 0.00 0.00 78 1008.1
20260505205519 28 234 0.0 4.8 0.00 0.00 0.00 78 1008.3
20260505205026 28 248 0.0 9.7 0.00 0.00 0.00 79 1008.3
20260505204548 28 0 0.0 9.7 0.00 0.00 0.00 79 1008.3
20260505204023 28 293 0.0 9.7 0.00 0.00 0.00 79 1008.4
20260505203521 28 0 0.0 3.2 0.00 0.00 0.00 80 1008.6
20260505203038 28 257 0.0 1.6 0.00 0.00 0.00 80 1008.8
20260505202520 28 0 0.0 1.6 0.00 0.00 0.00 80 1008.6
20260505202019 28 226 0.0 1.6 0.00 0.00 0.00 79 1008.8
20260505201535 28 0 0.0 3.2 0.00 0.00 0.00 78 1008.9
20260505201019 28 0 0.0 3.2 0.00 0.00 0.00 78 1008.9
20260505200521 28 255 0.0 3.2 0.00 0.00 0.00 77 1008.9
20260505200034 28 276 1.6 3.2 0.00 0.00 0.00 76 1009.0
20260505195518 28 191 0.0 3.2 0.00 0.00 0.00 78 1009.1
20260505195018 28 276 0.0 3.2 0.00 0.00 0.00 79 1009.1
20260505194545 28 259 0.0 3.2 0.00 0.00 0.00 80 1009.2
20260505194022 27 0 0.0 4.8 0.00 0.00 0.00 80 1009.3